South Lake Tahoe, CA

8:26 PM PDT on August 24, 2019 (GMT -0700)
Lake Tahoe

Weather History for KTVL - July, 2019

Change the Weather History Date:

Wednesday, July 17, 2019

  Actual Average Record
Temperature  
Mean Temperature 62 °F 62 °F  
Max Temperature 80 °F 82 °F 90 °F (2010)
Min Temperature 43 °F 42 °F 29 °F (1993)
Degree Days  
Heating Degree Days 3 4  
Month to date heating degree days 117 86  
Since 1 June heating degree days 362 396  
Since 1 July heating degree days 117 86  
Cooling Degree Days 0 1  
Month to date cooling degree days 0 5  
Year to date cooling degree days 0 6  
Since 1 June cooling degree days 0 6  
Growing Degree Days 10 (Base 50)    
Moisture  
Dew Point 48 °F    
Average Humidity 65    
Maximum Humidity 96    
Minimum Humidity 33    
Precipitation  
Precipitation 0.00 in - 0.24 in (2002)
Month to date precipitation 0.00  
Year to date precipitation 17.74  
Sea Level Pressure  
Sea Level Pressure 29.99 in    
Wind  
Wind Speed 5 mph (South)    
Max Wind Speed 15 mph    
Max Gust Speed 22 mph    
Visibility 10 miles    
Events      
T = Trace of Precipitation, MM = Missing Value Source: NWS Daily Summary

Daily Weather History Graph

Daily Weather History Graph

Search for Another Location

Airport or City:

Astronomy

Jul. 17, 2019 Rise Set
Actual Time 5:48 AM PDT 8:23 PM PDT
Civil Twilight 5:17 AM PDT 8:54 PM PDT
Nautical Twilight 4:38 AM PDT 9:32 PM PDT
Astronomical Twilight 3:55 AM PDT 10:15 PM PDT
Moon 9:15 PM PDT (7/17) 6:25 AM PDT (7/17)
Length of Visible Light 15h 36m
Length of Day
14h 35m
Full, 99% of the Moon is Illuminated
Jul 17
Full
Jul 24
Last Quarter
Jul 31
New
Aug 7
First Quarter
Aug 15
Full

Hourly Weather History & Observations

Time (PDT) Temp. Windchill Dew Point Humidity Pressure Visibility Wind Dir Wind Speed Gust Speed Precip Events Conditions
12:53 AM 51.1 °F - 46.9 °F 86% 29.97 in 10.0 mi South 4.6 mph - N/A   Clear
1:53 AM 50.0 °F - 46.0 °F 86% 29.96 in 10.0 mi Calm Calm - N/A   Clear
2:53 AM 46.9 °F - 45.0 °F 93% 29.97 in 10.0 mi South 3.5 mph - N/A   Clear
3:53 AM 46.0 °F - 43.0 °F 89% 29.96 in 10.0 mi Calm Calm - N/A   Clear
4:53 AM 45.0 °F - 43.0 °F 93% 29.98 in 10.0 mi Calm Calm - N/A   Clear
5:53 AM 43.0 °F - 41.0 °F 93% 30.00 in 10.0 mi Calm Calm - N/A   Clear
6:53 AM 45.0 °F 43.5 °F 42.1 °F 90% 30.02 in 10.0 mi South 3.5 mph - N/A   Clear
7:53 AM 54.0 °F - 45.0 °F 72% 30.01 in 10.0 mi Calm Calm - N/A   Clear
8:53 AM 63.0 °F - 48.0 °F 58% 29.99 in 10.0 mi Calm Calm - N/A   Clear
9:53 AM 66.9 °F - 50.0 °F 54% 29.99 in 10.0 mi ENE 6.9 mph - N/A   Clear
10:53 AM 70.0 °F - 50.0 °F 49% 29.99 in 10.0 mi NNE 8.1 mph - N/A   Clear
11:53 AM 72.0 °F - 52.0 °F 49% 30.00 in 10.0 mi Variable 3.5 mph - N/A   Clear
12:53 PM 75.0 °F - 48.0 °F 38% 29.99 in 10.0 mi NNE 8.1 mph - N/A   Clear
1:53 PM 77.0 °F - 46.9 °F 34% 29.97 in 10.0 mi NNE 8.1 mph - N/A   Clear
2:53 PM 78.1 °F - 48.0 °F 35% 29.97 in 10.0 mi NNE 8.1 mph - N/A   Partly Cloudy
3:53 PM 77.0 °F - 51.1 °F 40% 29.98 in 10.0 mi Variable 5.8 mph 16.1 mph N/A   Clear
4:53 PM 77.0 °F - 52.0 °F 42% 29.99 in 10.0 mi SSW 8.1 mph 18.4 mph N/A   Clear
5:53 PM 75.9 °F - 53.1 °F 45% 30.00 in 10.0 mi South 12.7 mph - N/A   Clear
6:53 PM 72.0 °F - 52.0 °F 49% 30.01 in 10.0 mi South 11.5 mph - N/A   Clear
7:53 PM 69.1 °F - 52.0 °F 54% 30.01 in 10.0 mi SSW 9.2 mph - N/A   Clear
8:53 PM 64.9 °F - 53.1 °F 65% 30.01 in 10.0 mi SSW 8.1 mph - N/A   Clear
9:53 PM 60.1 °F - 52.0 °F 75% 30.01 in 10.0 mi Calm Calm - N/A   Clear
10:53 PM 59.0 °F - 51.1 °F 75% 30.01 in 10.0 mi SSW 3.5 mph - N/A   Clear
11:53 PM 55.0 °F - 48.9 °F 80% 30.02 in 10.0 mi South 3.5 mph - N/A   Clear